www.pogodaiklimat.ru

Погода и климат >> Архив погоды >> Индонезия >> Surabaya Gedangan


ПОГОДА в Surabaya Gedangan

  • Прогноз погоды в Surabaya Gedangan
  • Монитор погоды в Surabaya Gedangan
  • Климат города

АРХИВ ПОГОДЫ в Surabaya Gedangan

Время (UTC), дата Ветер
(напр.,м/с)
 
Видим.   Явления Облачность Т
(С)
Тd
(С)
f
(%)
Тe
(С)
Тes
(С)
Комфортность P
(гПа)
Po
(гПа)
Тmin
(С)
Tmax
(С)
R
(мм)
S
(см)
18 20.03 штиль 0 7000 м 10/0
[As trans]
+26.6 +23.8 85 +37 +37 очень
душно
1008.3 1008.0
21 20.03 СЗ 4 7000 м ясно +26.3 +23.7 86 +36 +36 очень
душно
1007.7 1007.4
00 21.03 СЗ 3 10 км 5/5
[Cu hum Ac trans Ci fib]
+26.8 +24.2 86 +37 +39 очень
душно
1009.9 1009.6 +25.3
03 21.03 СЗ 4 11 км 5/0
[Cu med, cong As trans Ci fib]
+30.4 +24.0 69 +42 +51 опасность
перегрева
1010.7 1010.4
06 21.03 СЗ 4 10 км 8/0
[Cu med, cong As trans Ci fib]
+32.5 +24.2 62 +45 +53 опасность
перегрева
1007.6 1007.2
09 21.03 ЮЗ 2 8000 м в посл. час дождь 10/0
[Cu Sc As op Ci fib]
+28.6 +25.3 82 +42 +43 опасность
перегрева
1008.4 1007.9
12 21.03 З 2 9000 м {дождь} 10/0
[Cu med, cong As op Cs]
+26.6 +23.6 84 +36 +36 очень
душно
1009.4 1009.0 +33.5
15 21.03 Ю 2 8000 м 10/0
[Cu med, cong As op Cs]
+26.6 +23.6 84 +36 +36 очень
душно
1011.1 1010.8
18 21.03 ЮЗ 2 8000 м 5/3 600 м
[Sc diur, vesp As trans Ci fib]
+26.3 +23.9 87 +36 +36 очень
душно
1009.0 1008.6
21 21.03 штиль 0 8000 м 5/3 600 м
[Sc diur, vesp As trans Ci fib]
+26.2 +23.9 87 +36 +36 очень
душно
1009.1 1008.8
00 22.03 З 2 9000 м 8/4 600 м
[Cu hum Ac trans Ci fib]
+26.6 +24.5 88 +37 +39 очень
душно
1010.6 1010.2 +25.9
03 22.03 СЗ 3 10 км 8/0
[Cu med, cong Ac As Ci fib]
+30.9 +25.8 74 +46 +56 опасность
перегрева
1010.5 1010.2
06 22.03 СЗ 3 10 км 9/0
[Cu med, cong Ac As Ci fib]
+32.7 +24.1 61 +45 +53 опасность
перегрева
1008.0 1007.6
09 22.03 СЗ 4 10 км 9/0
[Cu med, cong Ac As Ci fib]
+31.6 +23.9 64 +43 +44 опасность
перегрева
1007.8 1007.4
12 22.03 С 2 10 км {дождь} 8/6
[Cu hum As op Ci fib]
+29.2 +25.1 79 +42 +42 опасность
перегрева
1009.1 1008.7 +33.7
15 22.03 З 3 9000 м 9/6
[Cu hum As op Ci fib]
+28.6 +25.1 81 +41 +41 опасность
перегрева
1011.0 1010.6
18 22.03 З 2 9000 м 8/5 600 м
[Cu hum As trans Ci fib]
+28.2 +25.3 84 +41 +41 опасность
перегрева
1009.8 1009.5
21 22.03 З 1 9000 м 8/0 600 м
[As trans Ci fib]
+27.4 +25.1 87 +39 +39 очень
душно
1009.5 1009.1
00 23.03 З 1 9000 м 9/6
[Cu hum As op Ci fib]
+27.0 +25.1 89 +39 +40 очень
душно
1010.6 1010.3 +25.8
03 23.03 С 2 11 км 4/3 600 м
[Cu hum Ac trans Ci fib]
+32.4 +25.4 67 +47 +60 опасность
перегрева
1011.0 1010.6
06 23.03 З 1 11 км 8/0
[Cu med, cong As op Ci fib]
+33.9 +25.5 62 +49 +61 опасность
перегрева
1008.6 1008.2
09 23.03 ЮЗ 2 5000 м слабый дождь 10/0
[Cu med, cong As op]
+26.3 +24.1 88 +37 +37 очень
душно
1008.6 1008.3
12 23.03 Ю 1 9000 м {дождь} 9/4 600 м
[Cu hum As op Cs]
+26.5 +23.9 86 +37 +37 очень
душно
1010.2 1009.8 +34.6
15 23.03 Ю 1 9000 м 8/4 600 м
[Cu hum As op Ci fib]
+26.4 +24.3 88 +37 +37 очень
душно
1011.6 1011.2
18 23.03 З 1 10 км 4/3 600 м
[Cu hum Ci fib]
+26.6 +24.2 87 +37 +37 очень
душно
1010.6 1010.2
21 23.03 штиль 0 9000 м 6/3 600 м
[Cu hum As trans Ci fib]
+26.0 +24.5 91 +36 +36 очень
душно
1010.1 1009.7
00 24.03 штиль 0 4000 м мгла 8/0
[Ac trans Ci fib]
+26.7 +24.8 89 +38 +41 очень
душно
1011.3 1011.0 +25.3
03 24.03 З 2 9000 м {туман} 9/0 2000 м
[Cu med, cong As op Ci fib]
+31.7 +25.4 69 +46 +56 опасность
перегрева
1012.2 1011.9
06 24.03 СЗ 4 10 км {туман} 8/0 2000 м
[Cu med, cong As op Ci fib]
+34.4 +25.7 61 +50 +58 опасность
перегрева
1009.2 1008.8
09 24.03 С 2 10 км 8/0
[Cu med, cong Ac cuf Ci fib]
+32.9 +26.1 68 +49 +51 опасность
перегрева
1007.9 1007.6
12 24.03 ЮЗ 3 10 км 8/0
[Cu med, cong Ac As Ci fib]
+30.2 +25.4 76 +44 +44 опасность
перегрева
1009.4 1009.0 +34.6
15 24.03 СЗ 3 10 км 3/0
[Ci fib]
+28.4 +23.7 76 +39 +39 очень
душно
1011.8 1011.4
18 24.03 СЗ 2 9000 м ясно +27.7 +24.4 82 +39 +39 очень
душно
1010.0 1009.6
21 24.03 З 3 9000 м 5/0
[Ac trans Ci fib]
+26.9 +23.7 83 +37 +37 очень
душно
1009.4 1009.0
00 25.03 З 2 7000 м 9/0
[As trans Ci fib]
+26.6 +23.6 84 +36 +38 очень
душно
1010.6 1010.3 +26.2
03 25.03 СЗ 3 10 км 6/1 600 м
[Cu hum Ac trans Ci fib]
+32.2 +23.1 59 +43 +54 опасность
перегрева
1011.1 1010.7
06 25.03 С 4 10 км 9/3 600 м
[Cu med, cong As op]
+34.1 +24.6 58 +47 +50 опасность
перегрева
1008.5 1008.1
09 25.03 З 2 10 км 8/5
[Cu hum As trans Ci fib]
+33.3 +26.0 66 +49 +50 опасность
перегрева
1007.0 1006.6
12 25.03 С 2 8000 м 8/0
[Cu med, cong As trans Ci fib]
+30.2 +25.8 77 +45 +45 опасность
перегрева
1009.8 1009.4 +34.8
15 25.03 Ю 2 6000 м слабый дождь {гроза} 10/0
[Cb cap As op]
+25.8 +24.1 90 +36 +36 очень
душно
1012.8 1012.4
18 25.03 Ю 2 6000 м в посл. час дождь 8/0
[Cu Sc As op]
+25.0 +23.9 94 +34 +34 очень
душно
1009.7 1009.4
21 25.03 СВ 1 6000 м в посл. час дождь 5/1 600 м
[Cu Sc As op Ci fib]
+25.0 +24.2 95 +34 +34 очень
душно
1009.6 1009.2
00 26.03 штиль 0 10 км осадки на расстоянии {дождь} 10/4 600 м
[Cu med, cong Ac trans Ci sp]
+25.4 +24.8 96 +36 +37 очень
душно
1011.5 1011.1 +24.8 11
03 26.03 штиль 0 11 км 8/5
[Cu hum Ac trans Ci sp]
+29.4 +24.8 76 +42 +51 опасность
перегрева
1012.1 1011.8
06 26.03 С 3 10 км гроза без осадков 10/0
[Cb calv As op Ci sp]
+31.4 +25.9 73 +47 +55 опасность
перегрева
1009.9 1009.6
09 26.03 СЗ 5 5000 м слабый дождь {гроза} 10/6
[Cb calv Ac As]
+27.1 +24.8 87 +39 +39 очень
душно
1010.6 1010.2
12 26.03 штиль 0 5000 м слабый дождь {гроза} 10/0 600 м
[Cb cap]
+24.9 +24.5 98 +35 +35 очень
душно
1012.8 1012.4 +32.0
15 26.03 штиль 0 6000 м слабый дождь 10/10
[St As op]
+25.1 +24.7 98 +35 +35 очень
душно
1013.5 1013.1
18 26.03 З 1 7000 м {дождь} 9/0 2000 м
[Ac trans]
+24.9 +24.3 96 +34 +34 очень
душно
1011.5 1011.1
21 26.03 Ю 2 7000 м 9/0 2000 м
[Ac trans]
+24.5 +23.9 96 +33 +33 очень
душно
1010.8 1010.4
00 27.03 Ю 2 8000 м 10/10
[Sc diur, vesp As op]
+25.0 +24.0 94 +34 +34 очень
душно
1012.4 1012.0 +24.3
03 27.03 С 2 9000 м 8/4 600 м
[Sc diur, vesp As trans Ci fib]
+28.4 +24.1 78 +40 +48 очень
душно
1012.5 1012.1
06 27.03 В 2 10 км 9/4 600 м
[Sc diur, vesp Ac trans Ci fib]
+31.4 +22.6 60 +41 +47 опасность
перегрева
1009.5 1009.2
09 27.03 В 2 10 км 8/5
[Cu hum Ac trans Ci fib]
+31.4 +24.9 68 +45 +46 опасность
перегрева
1008.5 1008.1
12 27.03 СВ 2 9000 м {дождь} 5/3 600 м
[Cu hum As trans Ci fib]
+29.2 +25.1 79 +42 +42 опасность
перегрева
1010.3 1009.9 +33.1
15 27.03 СЗ 1 8000 м 9/5
[Cu hum As op Ci sp]
+28.0 +25.1 84 +40 +40 очень
душно
1012.4 1012.0

 

Местоположение метеостанции Surabaya Gedangan (Индонезия): широта -7.22 долгота 113.71 высота над уровнем моря 113 м.

В архиве по умолчанию представлена погода в Surabaya Gedangan за последнюю неделю. Архивные данные за месяц целиком и за предыдущие месяцы, начиная с января 2011 года, Вы можете получить, выбрав интересующий диапазон дат из раскрывающегося списка и нажав кнопку "Ввод!".

Внимание! Время в таблицах - всемирное. Для получения местного времени необходимо прибавить поправку, которая в Surabaya Gedangan равна 7 ч.

Смотрите также архив погоды в соседних городах и на ближайших метеорологических станциях:

Погода в Kalianget (Индонезия) (33 км)
Погода в Juanda Int Airport (Индонезия) (106 км)
Погода в Surabaya Perak (Индонезия) (110 км)
Погода в Banyuwangi (Индонезия) (134 км)
Погода в Sangkapura BI (Индонезия) (194 км)
Погода в Denpasar (Индонезия) (233 км)
Погода в Ampenan (Индонезия) (297 км)
Погода в Semarang (Индонезия) (365 км)
Погода в Achmad Yani Int Airport (Индонезия) (369 км)
Погода в Sumbawa Besar (Индонезия) (429 км)

Пояснения к столбцам:

Ветер - указаны скорость ветра в м/с - средняя за 10 мин, порывы в срок и между сроками (в фигурных скобках) и направление, откуда дует ветер: С - северный, СВ - северо-восточный, В - восточный, ЮВ - юго-восточный, Ю - южный, ЮЗ - юго-западный, З - западный, СЗ - северо-западный.
Видимость - горизонтальная дальность видимости в метрах или километрах. При видимости от 1 до 10 км при отсутствии осадков обычно наблюдается дымка, при ухудшении видимости до 1 км и менее - туман. В сухую погоду видимость может ухудшаться дымом, пылью или мглою.
Явления - указаны атмосферные явления, наблюдавшиеся в срок или в последний час перед сроком; фигурными скобками обозначены явления, наблюдавшиеся между сроками (за 1-3 часа до срока); квадратными скобками обозначены град или гололедные отложения с указанием их диаметра в мм.
Облачность - указаны через наклонную черту общая и нижняя облачность в баллах и высота нижней границы облаков в метрах; квадратными скобками обозначены формы облаков: Ci - перистые, Cs - перисто-слоистые, Cc - перисто-кучевые, Ac - высококучевые, As - высокослоистые, Sc - слоисто-кучевые, Ns - слоисто-дождевые, Cu - кучевые, Cb - кучево-дождевые. Подробнее классификацию облаков см. в Атласе облаков (PDF).
T - Температура воздуха - температура, измеренная на высоте 2 м над землей.
Td - Температура точки росы - температура, при понижении до которой содержащийся в воздухе водяной пар достигнет насыщения.
f - Относительная влажность воздуха - влажноcть воздуха, измеренная на высоте 2 м над землей.
Te - Эффективная температура - температура, которую ощущает одетый по сезону человек в тени. Характеристика душности погоды. При расчете учитывается влияние влажности воздуха и скорости ветра на теплоощущения человека.
Tes - Эффективная температура на солнце - температура, которую ощущает человек, с поправкой на солнечный нагрев. Характеристика знойности погоды. Зависит от высоты солнца над горизонтом, облачности и скорости ветра. Ночью, в пасмурную погоду, а также при ветре 12 м/с и более поправка равна нулю.
P - Атмосферное давление - приведенное к уровню моря атмосферное давление.
Po - Атмосферное давление - измеренное на уровне метеостанции атмосферное давление.
Tmin - Минимальная температура - минимум температуры воздуха на высоте 2 м над землей.
Tmax - Максимальная температура - максимум температуры воздуха на высоте 2 м над землей.
R - Количество осадков - Количество выпавших осадков, мм. При наведении курсора мыши на число - период времени, за который выпало указанное количество осадков.
S - Снежный покров - Высота снежного покрова, см. При наведении курсора мыши на число - состояние снежного покрова и степень покрытия местности в баллах.